Weather History for Elmendorf AFB, AK

Change the Weather History Date:

Thursday, January 3, 2013

  Actual Average Record
Temperature  
Mean Temperature 29 °F -  
Max Temperature 33 °F 16 °F 43 °F (1957)
Min Temperature 25 °F 3 °F -37 °F (1975)
Degree Days  
Heating Degree Days 36    
Moisture  
Dew Point 23 °F    
Average Humidity 81    
Maximum Humidity 91    
Minimum Humidity 67    
Precipitation  
Precipitation 0.00 in - - ()
Sea Level Pressure  
Sea Level Pressure 29.54 in    
Wind  
Wind Speed 3 mph (NNW)    
Max Wind Speed 13 mph    
Max Gust Speed -    
Visibility 10 miles    
Events      
Averages and records for this station are not official NWS values.
T = Trace of Precipitation, MM = Missing Value Source: NWS Daily Summary

Daily Weather History Graph

Daily Weather History Graph

Search for Another Location

Airport:

Trip Planner

Search our weather history database for the weather conditions in past years. The results will help you decide how hot, cold, wet, or windy it might be!

Date:

Astronomy

Jan. 03, 2013 Rise Set
Actual Time 10:11 AM AKST 3:56 PM AKST
Civil Twilight 9:11 AM AKST 4:56 PM AKST
Nautical Twilight 8:12 AM AKST 5:55 PM AKST
Astronomical Twilight 7:19 AM AKST 6:48 PM AKST
Moon No Moon Rise 11:25 AM AKST (1/3)
Length of Visible Light 7h 45m
Length of Day
5h 44m
Waning Gibbous, 64% of the Moon is Illuminated
Jan 3
Waning Gibbous
Jan 4
Last Quarter
Jan 11
New
Jan 18
First Quarter
Jan 26
Full

Hourly Weather History & Observations

Time (AKST) Temp. Windchill Dew Point Humidity Pressure Visibility Wind Dir Wind Speed Gust Speed Precip Events Conditions
12:55 AM 30.4 °F 23.6 °F 25.2 °F 81% 29.54 in 10.0 mi SSW 6.9 mph - N/A   Clear
1:55 AM 27.9 °F - 24.1 °F 86% 29.53 in 10.0 mi Calm Calm - N/A   Scattered Clouds
2:55 AM 27.3 °F - 25.0 °F 91% 29.54 in 10.0 mi Calm Calm - N/A   Overcast
3:55 AM 27.3 °F - 24.3 °F 88% 29.55 in 10.0 mi Calm Calm - N/A   Mostly Cloudy
4:55 AM 27.0 °F - 24.1 °F 89% 29.53 in 10.0 mi Calm Calm - N/A   Overcast
5:55 AM 26.2 °F - 23.2 °F 88% 29.53 in 10.0 mi Calm Calm - N/A   Partly Cloudy
6:55 AM 25.7 °F - 22.6 °F 88% 29.52 in 10.0 mi Calm Calm - N/A   Mostly Cloudy
7:55 AM 27.1 °F - 23.0 °F 84% 29.52 in 10.0 mi Calm Calm - N/A   Mostly Cloudy
8:55 AM 26.6 °F - 23.0 °F 86% 29.52 in 10.0 mi Calm Calm - N/A   Partly Cloudy
9:55 AM 26.2 °F 20.7 °F 22.6 °F 86% 29.52 in 10.0 mi NNW 4.6 mph - N/A   Clear
10:55 AM 27.7 °F - 23.4 °F 84% 29.53 in 10.0 mi Calm Calm - N/A   Clear
11:55 AM 29.3 °F 20.8 °F 23.2 °F 78% 29.53 in 10.0 mi NW 9.2 mph - N/A   Clear
12:55 PM 33.3 °F 24.1 °F 23.4 °F 67% 29.53 in 10.0 mi NNE 12.7 mph - N/A   Partly Cloudy
1:55 PM 32.2 °F 24.4 °F 23.2 °F 69% 29.53 in 10.0 mi WNW 9.2 mph - N/A   Partly Cloudy
2:55 PM 32.2 °F 25.8 °F 23.5 °F 70% 29.53 in 10.0 mi North 6.9 mph - N/A   Partly Cloudy
3:55 PM 31.5 °F 24.9 °F 23.0 °F 71% 29.53 in 10.0 mi NNW 6.9 mph - N/A   Scattered Clouds
4:55 PM 30.9 °F - 23.4 °F 74% 29.54 in 10.0 mi Calm Calm - N/A   Mostly Cloudy
5:55 PM 30.7 °F - 23.4 °F 74% 29.55 in 10.0 mi Calm Calm - N/A   Overcast
6:55 PM 29.1 °F - 23.2 °F 78% 29.55 in 10.0 mi Calm Calm - N/A   Overcast
7:55 PM 30.2 °F 25.4 °F 23.7 °F 77% 29.56 in 10.0 mi Variable 4.6 mph - N/A   Overcast
8:55 PM 25.7 °F - 21.7 °F 85% 29.55 in 10.0 mi Calm Calm - N/A   Mostly Cloudy
9:55 PM 27.5 °F - 22.6 °F 82% 29.56 in 10.0 mi Calm Calm - N/A   Overcast
10:55 PM 25.5 °F - 21.6 °F 85% 29.57 in 10.0 mi Calm Calm - N/A   Overcast
11:55 PM 26.6 °F - 21.6 °F 81% 29.58 in 10.0 mi Calm Calm - N/A   Overcast